When you browse on this site, cookies collect data to enhance your experience and personalize the content and advertising you see.
Visit our Privacy Policy to learn more. By continuing to use the site, you agree to this use of cookies and data.
  • In Lithuania
  • List of Countries
  • For 7 days
  • Water Temperature
  • Weather Map
  • Weather Widgets
  • user-avatar
    Login

    Hourly Weather Nkongsamba

    Today, 14 December, Saturday

    Time Temperature Precipitation Wind Pressure Humidity
    00:00 +20°C° 0 mm 0 mps 685 mmHg 86%
    01:00 +20°C° 0 mm 0 mps 685 mmHg 87%
    02:00 +20°C° 0 mm 0 mps 685 mmHg 87%
    03:00 +19°C° 0 mm 0 mps 685 mmHg 87%
    04:00 +19°C° 0 mm 0 mps 684 mmHg 87%
    05:00 +19°C° 0 mm 0 mps 685 mmHg 85%
    06:00 +20°C° 0 mm 0 mps 685 mmHg 82%
    07:00 +20°C° 0 mm 0 mps 686 mmHg 80%
    08:00 +22°C° 0 mm 0 mps 686 mmHg 70%
    09:00 +25°C° 0 mm 0 mps 687 mmHg 60%
    10:00 +27°C° 0 mm 0 mps 687 mmHg 50%
    11:00 +30°C° 0 mm 1 mps 687 mmHg 47%
    12:00 +31°C° 0 mm 1 mps 687 mmHg 44%
    13:00 +31°C° 0 mm 2 mps 686 mmHg 43%
    14:00 +31°C° 0.1 mm 2 mps 686 mmHg 45%
    15:00 +30°C° 0.1 mm 1 mps 685 mmHg 47%
    16:00 +30°C° 0.1 mm 1 mps 684 mmHg 49%
    17:00 +28°C° 0.4 mm 1 mps 684 mmHg 61%
    18:00 +26°C° 0.4 mm 1 mps 685 mmHg 72%
    19:00 +23°C° 0.4 mm 1 mps 685 mmHg 84%
    20:00 +21°C° 0.3 mm 0 mps 685 mmHg 87%
    21:00 +21°C° 0.3 mm 0 mps 686 mmHg 89%
    22:00 +20°C° 0.3 mm 0 mps 686 mmHg 92%
    23:00 +20°C° 0 mm 0 mps 686 mmHg 92%

    Tomorrow, 15 December, Sunday

    Time Temperature Precipitation Wind Pressure Humidity
    00:00 +20°C° 0 mm 0 mps 686 mmHg 92%
    01:00 +19°C° 0 mm 0 mps 686 mmHg 92%
    02:00 +19°C° 0 mm 0 mps 685 mmHg 92%
    03:00 +19°C° 0 mm 0 mps 685 mmHg 92%
    04:00 +19°C° 0 mm 0 mps 685 mmHg 92%
    05:00 +19°C° 0 mm 0 mps 685 mmHg 90%
    06:00 +19°C° 0 mm 0 mps 685 mmHg 89%
    07:00 +19°C° 0 mm 0 mps 686 mmHg 87%
    08:00 +21°C° 0 mm 0 mps 687 mmHg 76%
    09:00 +24°C° 0 mm 0 mps 687 mmHg 65%
    10:00 +27°C° 0 mm 0 mps 688 mmHg 54%
    11:00 +30°C° 0 mm 1 mps 687 mmHg 49%
    12:00 +31°C° 0 mm 1 mps 687 mmHg 44%
    13:00 +32°C° 0 mm 1 mps 686 mmHg 39%
    14:00 +31°C° 0 mm 1 mps 685 mmHg 41%
    15:00 +31°C° 0 mm 1 mps 684 mmHg 42%
    16:00 +31°C° 0 mm 1 mps 684 mmHg 43%
    17:00 +29°C° 0 mm 1 mps 684 mmHg 51%
    18:00 +27°C° 0 mm 1 mps 684 mmHg 60%
    19:00 +24°C° 0 mm 1 mps 683 mmHg 68%
    20:00 +24°C° 0 mm 1 mps 684 mmHg 70%
    21:00 +21°C° 0 mm 0 mps 684 mmHg 72%
    22:00 +21°C° 0 mm 0 mps 684 mmHg 73%
    23:00 +20°C° 0 mm 0 mps 684 mmHg 72%

    Day after tomorrow, 16 December, Monday

    Time Temperature Precipitation Wind Pressure Humidity
    00:00 +20°C° 0 mm 0 mps 684 mmHg 70%
    01:00 +22°C° 0 mm 1 mps 684 mmHg 68%
    02:00 +21°C° 0 mm 1 mps 684 mmHg 67%
    03:00 +21°C° 0 mm 1 mps 683 mmHg 65%
    04:00 +21°C° 0 mm 1 mps 683 mmHg 63%
    05:00 +21°C° 0 mm 1 mps 684 mmHg 62%
    06:00 +21°C° 0 mm 1 mps 684 mmHg 61%
    07:00 +19°C° 0 mm 0 mps 684 mmHg 59%
    08:00 +22°C° 0 mm 0 mps 685 mmHg 53%
    09:00 +25°C° 0 mm 0 mps 685 mmHg 46%
    10:00 +28°C° 0 mm 0 mps 686 mmHg 40%
    11:00 +31°C° 0 mm 1 mps 685 mmHg 38%
    12:00 +32°C° 0 mm 1 mps 685 mmHg 35%
    13:00 +33°C° 0 mm 1 mps 684 mmHg 33%
    14:00 +32°C° 0 mm 1 mps 684 mmHg 34%
    15:00 +32°C° 0 mm 1 mps 683 mmHg 35%
    16:00 +32°C° 0 mm 1 mps 682 mmHg 35%
    17:00 +29°C° 0 mm 1 mps 682 mmHg 45%
    18:00 +27°C° 0 mm 1 mps 682 mmHg 56%
    19:00 +22°C° 0 mm 0 mps 682 mmHg 66%
    20:00 +22°C° 0 mm 0 mps 683 mmHg 69%
    21:00 +21°C° 0 mm 0 mps 683 mmHg 72%
    22:00 +21°C° 0 mm 0 mps 684 mmHg 76%
    23:00 +20°C° 0 mm 0 mps 684 mmHg 78%

    17 December, Tuesday

    Time Temperature Precipitation Wind Pressure Humidity
    00:00 +20°C° 0 mm 0 mps 684 mmHg 81%
    01:00 +20°C° 0 mm 0 mps 683 mmHg 83%
    02:00 +19°C° 0 mm 0 mps 683 mmHg 85%
    03:00 +19°C° 0 mm 0 mps 683 mmHg 87%
    04:00 +19°C° 0 mm 0 mps 683 mmHg 89%
    05:00 +19°C° 0 mm 0 mps 683 mmHg 87%
    06:00 +19°C° 0 mm 0 mps 684 mmHg 85%
    07:00 +19°C° 0 mm 0 mps 684 mmHg 84%
    08:00 +22°C° 0 mm 0 mps 685 mmHg 74%
    09:00 +26°C° 0 mm 1 mps 685 mmHg 64%
    10:00 +29°C° 0 mm 1 mps 686 mmHg 54%
    11:00 +29°C° 0 mm 1 mps 686 mmHg 51%
    12:00 +30°C° 0 mm 1 mps 685 mmHg 49%
    13:00 +31°C° 0 mm 2 mps 685 mmHg 46%
    14:00 +31°C° 0 mm 2 mps 684 mmHg 48%
    15:00 +30°C° 0 mm 2 mps 684 mmHg 49%
    16:00 +30°C° 0 mm 2 mps 683 mmHg 51%
    17:00 +28°C° 0.2 mm 1 mps 683 mmHg 61%
    18:00 +26°C° 0.2 mm 1 mps 683 mmHg 72%
    19:00 +24°C° 0.2 mm 1 mps 683 mmHg 82%
    20:00 +23°C° 0 mm 1 mps 684 mmHg 85%
    21:00 +21°C° 0 mm 0 mps 684 mmHg 89%
    22:00 +20°C° 0 mm 0 mps 685 mmHg 93%
    23:00 +20°C° 0 mm 0 mps 685 mmHg 93%

    18 December, Wednesday

    Time Temperature Precipitation Wind Pressure Humidity
    00:00 +20°C° 0 mm 0 mps 684 mmHg 93%
    01:00 +20°C° 0 mm 0 mps 684 mmHg 94%
    02:00 +19°C° 0 mm 0 mps 684 mmHg 94%
    03:00 +19°C° 0 mm 0 mps 684 mmHg 95%
    04:00 +19°C° 0 mm 0 mps 684 mmHg 95%
    05:00 +19°C° 0 mm 0 mps 684 mmHg 94%
    06:00 +19°C° 0 mm 0 mps 685 mmHg 93%
    07:00 +19°C° 0 mm 0 mps 685 mmHg 92%
    08:00 +22°C° 0 mm 0 mps 686 mmHg 80%
    09:00 +24°C° 0 mm 0 mps 686 mmHg 69%
    10:00 +27°C° 0 mm 0 mps 687 mmHg 57%
    11:00 +30°C° 0 mm 1 mps 686 mmHg 53%
    12:00 +31°C° 0 mm 1 mps 686 mmHg 49%
    13:00 +32°C° 0 mm 1 mps 685 mmHg 44%
    14:00 +31°C° 0 mm 1 mps 685 mmHg 46%
    15:00 +31°C° 0 mm 2 mps 684 mmHg 47%
    16:00 +30°C° 0 mm 2 mps 683 mmHg 48%
    17:00 +28°C° 0.3 mm 1 mps 683 mmHg 59%
    18:00 +26°C° 0.3 mm 1 mps 684 mmHg 70%
    19:00 +24°C° 0.3 mm 1 mps 684 mmHg 81%
    20:00 +21°C° 0.1 mm 0 mps 684 mmHg 84%
    21:00 +21°C° 0.1 mm 0 mps 685 mmHg 87%
    22:00 +20°C° 0.1 mm 0 mps 685 mmHg 90%
    23:00 +20°C° 0 mm 0 mps 685 mmHg 91%

    19 December, Thursday

    Time Temperature Precipitation Wind Pressure Humidity
    00:00 +20°C° 0 mm 0 mps 685 mmHg 92%
    01:00 +20°C° 0 mm 0 mps 685 mmHg 92%
    02:00 +20°C° 0 mm 0 mps 685 mmHg 93%
    03:00 +19°C° 0 mm 0 mps 685 mmHg 93%
    04:00 +19°C° 0 mm 0 mps 684 mmHg 94%
    05:00 +19°C° 0 mm 0 mps 685 mmHg 93%
    06:00 +19°C° 0 mm 0 mps 685 mmHg 92%
    07:00 +19°C° 0 mm 0 mps 685 mmHg 90%
    08:00 +22°C° 0 mm 0 mps 686 mmHg 81%
    09:00 +24°C° 0 mm 0 mps 686 mmHg 71%
    10:00 +26°C° 0 mm 0 mps 687 mmHg 62%
    11:00 +29°C° 0 mm 1 mps 686 mmHg 57%
    12:00 +30°C° 0 mm 1 mps 686 mmHg 52%
    13:00 +31°C° 0 mm 1 mps 685 mmHg 47%
    14:00 +31°C° 0 mm 1 mps 684 mmHg 48%
    15:00 +30°C° 0 mm 1 mps 684 mmHg 50%
    16:00 +30°C° 0 mm 1 mps 683 mmHg 51%
    17:00 +28°C° 0.1 mm 1 mps 683 mmHg 61%
    18:00 +26°C° 0.1 mm 1 mps 683 mmHg 70%
    19:00 +24°C° 0.1 mm 1 mps 683 mmHg 79%
    20:00 +21°C° 0 mm 0 mps 684 mmHg 83%
    21:00 +21°C° 0 mm 0 mps 684 mmHg 86%
    22:00 +20°C° 0 mm 0 mps 685 mmHg 89%
    23:00 +20°C° 0 mm 0 mps 685 mmHg 89%
    Show more